This demonstration page uses our WeatherBlox Daily Observations layout. Learn more.

41.55636, -103.73856

Hourly Observations for May 9, 2017

Temp ( °F °C ) Dew Point ( °F °C ) Humidity (%) Winds ( mph kmh ) Pressure ( in mb ) Visibility ( mi km ) Precip ( " mm )
12:53 am 00:53 Mostly Clear 54 12.2 48 8.9 80 80 NE 7 11 30 1016 10 16.0934 0 0
1:53 am 01:53 Mostly Cloudy 54 12.2 49 9.4 83 83 E 7 11 30.01 1016 10 16.0934 0 0
2:26 am 02:26 Cloudy 54 12.2 50 10 87 87 ESE 10 17 30.03 1017 10 16.0934 0 0
2:33 am 02:33 Cloudy 54 12.2 50 10 87 87 ESE 12 19 30.03 1017 10 16.0934 0 0
2:41 am 02:41 Cloudy 53 11.7 49 9.4 86 86 ESE 10 17 30.03 1017 10 16.0934 0 0
2:53 am 02:53 Cloudy 53 11.7 49 9.4 86 86 ESE 8 13 30.01 1016 10 16.0934 0 0
3:07 am 03:07 Cloudy 53 11.7 49 9.4 86 86 E 10 17 30.03 1017 10 16.0934 0 0
3:42 am 03:42 Cloudy 54 12 48 9 82 82 ESE 8 13 30 1016 10 16.0934 0 0
3:53 am 03:53 Cloudy 53 11.7 48 8.9 83 83 E 8 13 29.97 1015 10 16.0934 0 0.0254
4:02 am 04:02 Cloudy 54 12 48 9 82 82 E 8 13 30 1016 10 16.0934 0 0
4:53 am 04:53 Cloudy 52 11.1 47 8.3 83 83 E 10 17 29.96 1015 10 16.0934 0 0
5:53 am 05:53 Cloudy 51 10.6 46 7.8 83 83 E 12 19 29.97 1015 10 16.0934 0 0
6:43 am 06:43 Cloudy 51 10.6 46 7.8 83 83 E 12 19 29.97 1015 10 16.0934 0 0
6:53 am 06:53 Cloudy 51 10.6 46 7.8 83 83 ESE 8 13 29.98 1015 10 16.0934 0 0
7:53 am 07:53 Cloudy 51 10.6 47 8.3 86 86 ESE 14 22 30.01 1016 10 16.0934 0 0
8:53 am 08:53 Cloudy 53 11.7 46 7.8 77 77 SE 17 28 30.01 1016 10 16.0934 0 0
9:46 am 09:46 Cloudy 54 12 46 8 77 77 SE 15 24 30.03 1017 10 16.0934 0 0
9:53 am 09:53 Cloudy 53 11.7 46 7.8 77 77 SE 16 26 30.02 1017 10 16.0934 0 0
10:12 am 10:12 Cloudy 54 12 46 8 77 77 ESE 14 22 30 1016 10 16.0934 0 0
10:53 am 10:53 Cloudy 55 12.8 46 7.8 72 72 ESE 12 19 30 1016 10 16.0934 0 0
11:53 am 11:53 Cloudy 59 15 46 7.8 62 62 ESE 10 17 29.95 1014 10 16.0934 0 0
12:09 pm 12:09 Mostly Cloudy 61 16.1 47 8.3 60 60 SE 13 20 29.88 1012 10 16.0934 0 0
12:43 pm 12:43 Cloudy 64 17.8 48 8.9 56 56 SE 15 24 29.85 1011 10 16.0934 0 0
12:53 pm 12:53 Mostly Cloudy 64 17.8 48 8.9 56 56 SE 18 30 29.92 1013 10 16.0934 0 0
1:53 pm 13:53 Cloudy 62 16.7 49 9.4 62 62 SE 14 22 29.91 1013 10 16.0934 0 0
2:53 pm 14:53 Cloudy 64 17.8 50 10 60 60 SSE 13 20 29.88 1012 10 16.0934 0 0
3:23 pm 15:23 Mostly Sunny 66 18.9 50 10 56 56 SSE 15 24 29.77 1008 10 16.0934 0 0
3:53 pm 15:53 Mostly Cloudy 65 18.3 50 10 59 59 SE 15 24 29.85 1011 10 16.0934 0 0
4:53 pm 16:53 Partly Cloudy 65 18.3 50 10 59 59 SSE 12 19 29.84 1011 10 16.0934 0 0
5:53 pm 17:53 Mostly Cloudy 66 18.9 50 10 56 56 SSE 13 20 29.82 1010 10 16.0934 0 0
6:53 pm 18:53 Cloudy 64 17.8 50 10 60 60 SE 7 11 29.83 1010 10 16.0934 0 0
7:53 pm 19:53 Cloudy 63 17.2 50 10 63 63 ESE 8 13 29.81 1010 10 16.0934 0 0
8:53 pm 20:53 Cloudy 61 16.1 50 10 67 67 ENE 6 9 29.81 1010 10 16.0934 0 0
9:53 pm 21:53 Mostly Cloudy 61 16.1 50 10 67 67 ESE 9 15 29.82 1010 10 16.0934 0 0
10:53 pm 22:53 Cloudy 59 15 54 12.2 83 83 ESE 8 13 29.8 1009 10 16.0934 0.01 0.254
11:53 pm 23:53 Mostly Cloudy 57 13.9 53 11.7 87 87 E 3 6 29.78 1009 10 16.0934 0 0

Powered by AerisWeather